Temperature
12 11 11 10 10 9 9 8 8 7 6 6 6 5 5 5 5 5 5 4 4 4 4 4 3 3 3 2 2 2 1 1 0 0 0 1 1 1 1 1 1 1 1
10 10 9 9 8 8 7 7 6 6 6 5 5 5 5 5 5 4 4 4 4 3 3 3 3 2 2 1 1 1 1 0 -0 -0 -0 0 1 1 1 1 1 1 1
9 9 8 7 7 7 6 6 6 5 5 5 5 4 4 4 4 3 3 3 2 2 2 2 2 1 1 1 0 0 0 -0 -0 -0 -0 0 0 0 0 0 0 0 0
8 7 7 6 6 6 5 5 5 4 4 4 4 4 3 3 3 2 2 2 1 1 1 1 1 0 0 0 -0 -0 -0 -0 -0 -0 -0 -0 -0 0 -0 -0 -0 0 0
7 6 6 5 5 5 5 4 4 4 4 3 3 3 2 2 2 1 1 1 1 1 0 0 0 0 -0 -0 -0 -0 -0 -0 -0 -0 -0 -0 -0 -0 -0 -0 -0 -0 -0
6 5 5 5 4 4 4 4 3 3 3 2 2 2 1 1 1 0 0 0 0 0 0 0 0 -0 -0 -0 -0 -0 -0 -0 -0 -0 -0 -0 -0 -0 -0 -0 -0 -0 -0
5 4 4 4 4 3 3 3 3 2 2 1 1 1 0 0 0 -0 -0 -0 -0 -0 -0 -0 -0 -0 -0 -0 -0 -0 -0 -0 -0 -0 -0 -0 -0 -0 -0 -0 -0 -0 -0
4 4 3 3 3 3 3 2 2 1 1 1 0 0 -0 -0 -0 -1 -1 -0 -0 -0 -0 -1 -1 -0 -0 -0 -0 -0 -0 -0 -0 -0 -0 -0 -0 -0 -1 -1 -1 -1 -0
3 3 3 3 2 2 2 1 1 1 0 -0 -0 -0 -1 -1 -1 -1 -1 -1 -0 -0 -0 -0 -0 -0 -0 -0 -0 -0 0 0 -0 -0 -0 -0 -0 -1 -1 -1 -1 -1 -1
3 2 2 2 2 1 1 1 0 0 -0 -0 -1 -1 -1 -1 -1 -1 -1 -1 -1 -0 -0 -0 -0 -0 -0 -0 -0 -0 -0 -0 -0 -0 -0 -0 -0 -1 -1 -1 -1 -1 -1
2 2 2 2 1 1 1 0 0 -0 -0 -1 -1 -1 -1 -2 -2 -2 -2 -2 -1 -1 -1 -0 -0 -0 -0 -0 -0 -0 -0 -0 -0 -0 -0 -0 -1 -1 -1 -1 -1 -1 -1
2 2 2 1 1 1 0 0 0 -0 -0 -1 -1 -1 -2 -2 -2 -2 -2 -2 -2 -1 -1 -1 -0 -0 -0 -0 -0 0 0 -0 -0 -0 -1 -1 -1 -1 -1 -1 -0 -0 -0
2 2 2 1 1 1 0 0 -0 -0 -1 -1 -1 -2 -2 -2 -2 -2 -2 -1 -1 -1 -1 -1 -1 -0 -0 0 0 0 0 0 -0 -0 -1 -1 -1 -1 -1 -1 -0 -0 -0
2 2 2 1 1 1 0 0 -0 -1 -1 -1 -2 -2 -2 -2 -2 -2 -2 -2 -1 -1 -1 -1 -0 -0 0 0 0 0 0 0 -0 -1 -1 -1 -1 -1 -1 -1 -1 -0 -0
2 2 2 1 1 1 0 -0 -0 -1 -1 -1 -2 -2 -2 -2 -2 -2 -2 -2 -2 -1 -1 -1 -0 0 0 0 0 0 0 0 -0 -0 -1 -1 -1 -1 -1 -1 -1 -1 -1
2 2 2 1 1 1 0 0 -0 -1 -1 -1 -2 -2 -2 -2 -2 -2 -2 -2 -2 -1 -1 -1 -0 -0 -0 0 0 1 0 0 -0 -0 -1 -1 -1 -1 -1 -1 -1 -1 -1
2 2 2 2 1 1 1 0 -0 -0 -1 -1 -2 -2 -2 -2 -2 -2 -2 -2 -2 -1 -1 -1 -1 -0 -0 0 0 1 1 0 0 -0 -0 -1 -1 -1 -1 -1 -1 -1 -1
3 2 2 2 2 1 1 0 -0 -0 -1 -1 -2 -2 -2 -2 -2 -2 -2 -2 -2 -1 -1 -1 -1 -0 -0 0 1 1 1 1 1 0 -0 -0 -1 -1 -1 -1 -1 -1 -1
3 3 3 2 2 1 1 1 0 -0 -1 -1 -2 -2 -2 -2 -2 -2 -2 -2 -2 -1 -1 -1 -1 -0 0 1 1 1 1 1 1 1 0 0 -0 -1 -1 -1 -1 -1 -1
3 3 3 2 2 2 1 1 0 -0 -1 -1 -2 -2 -2 -2 -2 -2 -2 -2 -1 -1 -1 -1 -0 -0 0 1 1 1 1 2 1 1 1 1 0 -0 -1 -1 -1 -2 -2
3 3 3 2 2 2 1 1 0 -0 -1 -1 -2 -2 -2 -2 -2 -1 -1 -1 -1 -1 -1 -1 -0 0 0 1 1 1 2 2 2 2 2 1 1 0 -0 -1 -1 -1 -2
3 3 3 2 2 1 1 1 0 -0 -1 -1 -2 -2 -2 -2 -1 -1 -1 -1 -1 -1 -1 -0 -0 0 1 1 1 2 2 2 2 2 2 2 2 1 1 0 -0 -1 -1
3 3 2 2 2 1 1 0 -0 -1 -1 -1 -1 -2 -2 -2 -1 -1 -1 -1 -1 -1 -0 -0 0 0 1 1 1 2 2 2 2 2 2 2 2 2 1 1 1 0 -0
3 2 2 2 1 1 1 0 -0 -1 -1 -1 -2 -2 -2 -2 -1 -1 -1 -1 -1 -0 -0 0 0 1 1 1 2 2 2 3 3 3 3 3 3 2 2 2 1 1 1
2 2 2 1 1 1 0 -0 -1 -1 -1 -1 -1 -2 -2 -2 -1 -1 -1 -1 -0 -0 0 0 1 1 1 2 2 2 3 3 3 3 3 3 3 3 3 2 2 2 2
2 2 1 1 0 0 -0 -0 -1 -1 -1 -1 -1 -2 -2 -1 -1 -1 -1 -0 -0 0 0 1 1 1 2 2 2 2 3 3 3 3 3 3 3 3 3 3 3 3 2
Wind_Speed
11 10 11 10 10 10 9 9 8 8 8 8 8 8 8 8 7 7 6 5 5 5 5 5 5 5 4 4 4 4 5 6 11 12 9 10 11 14 15 18 18 17 17
11 11 11 10 10 11 10 9 9 9 8 8 8 8 8 7 6 6 5 5 5 5 6 6 7 6 6 6 5 6 7 7 8 14 12 11 12 14 14 15 15 16 16
11 12 11 11 11 11 10 9 9 9 8 7 7 7 6 6 5 5 4 4 4 5 6 6 7 7 8 7 7 8 8 8 8 11 13 11 11 12 13 13 14 12 15
11 12 12 10 10 10 9 9 8 8 7 7 6 6 5 4 4 3 4 4 5 6 7 7 7 8 9 9 8 9 9 10 10 11 12 11 11 11 10 11 12 10 11
11 12 11 9 9 9 9 8 7 7 6 6 5 4 3 2 3 3 3 5 6 8 8 8 8 11 12 10 9 9 10 10 10 10 10 11 10 10 9 9 11 10 11
10 10 9 9 9 8 8 7 7 6 6 5 5 4 4 3 5 7 6 5 7 8 9 10 10 10 11 14 15 15 15 13 11 10 10 11 12 11 10 9 9 10 7
9 9 9 8 8 7 7 7 6 6 5 5 4 4 3 4 7 8 10 7 8 8 9 9 8 9 12 9 12 16 15 17 16 12 12 12 13 11 11 11 9 10 10
9 8 7 7 7 6 7 7 5 4 4 4 4 4 3 5 9 9 12 8 8 9 9 9 10 11 10 11 12 12 12 12 13 11 10 12 11 11 10 9 10 9 9
7 6 6 6 6 6 6 5 4 4 4 4 3 4 4 6 9 10 11 8 8 11 11 10 10 10 13 14 12 11 12 12 12 14 15 14 14 14 10 7 7 7 8
5 5 5 5 6 6 5 4 3 4 4 4 5 5 5 6 9 11 12 7 8 10 10 10 11 11 15 15 11 10 11 12 12 12 11 11 9 9 10 7 7 7 6
4 5 5 5 5 4 4 3 4 4 4 5 5 5 6 7 9 11 13 8 8 9 9 9 9 14 16 16 12 9 11 13 11 10 9 8 7 6 7 6 6 6 6
5 5 5 4 3 4 4 4 4 4 4 5 6 7 7 7 8 11 14 13 11 8 8 8 9 15 16 15 11 12 15 11 7 7 7 7 6 6 7 7 7 6 6
4 4 4 4 3 3 3 2 2 2 3 3 5 6 8 8 8 11 13 14 15 9 8 12 14 14 13 10 12 14 11 7 7 7 8 7 6 7 7 6 6 6 5
3 2 2 2 2 2 1 1 0 1 2 3 4 6 7 8 8 9 10 10 12 10 9 11 13 12 10 10 10 9 8 7 6 6 7 7 6 6 6 5 5 6 6
3 2 1 1 0 1 1 1 2 3 3 2 3 4 6 8 9 13 10 8 8 9 9 6 6 8 9 9 9 9 8 7 7 6 6 7 7 7 6 6 5 5 6
1 0 0 1 1 1 2 3 3 3 5 5 5 5 5 7 12 12 13 13 13 13 7 6 7 8 8 9 9 9 8 8 7 7 7 6 7 7 7 6 6 6 7
2 2 1 1 1 1 1 2 4 5 6 6 7 8 8 11 11 12 13 13 10 10 6 6 7 8 8 9 9 8 8 8 7 7 7 7 6 7 7 7 8 7 8
3 3 2 2 2 2 1 1 1 2 4 4 6 8 11 11 11 11 12 10 7 7 6 7 7 8 8 9 9 9 9 8 7 7 7 7 6 6 6 7 8 9 8
3 3 2 2 1 1 1 0 1 1 2 3 4 6 9 10 9 10 9 6 6 7 7 7 7 7 8 8 9 9 9 8 8 7 6 7 6 6 7 7 7 10 9
3 4 3 2 1 0 0 0 1 1 2 3 4 5 7 6 5 7 6 6 6 6 7 7 7 7 8 8 9 8 8 8 9 7 7 6 6 5 7 9 8 8 8
2 1 1 1 1 0 0 0 1 1 1 2 4 5 8 5 6 7 6 6 6 6 7 7 7 7 8 8 8 9 9 8 7 7 7 7 6 6 7 8 8 9 9
0 0 1 1 1 1 1 1 1 1 1 2 4 5 8 6 6 6 6 6 6 6 5 6 6 6 7 7 8 8 8 8 8 7 7 6 6 6 7 8 9 9 9
2 2 2 2 2 3 3 2 2 1 2 2 4 5 6 6 6 6 7 7 6 6 8 8 6 6 9 9 8 7 7 7 7 6 5 4 4 5 6 7 9 10 10
3 3 3 3 3 3 3 3 2 2 2 3 4 5 5 6 6 7 7 7 7 8 9 9 9 10 13 12 10 10 9 10 9 6 4 3 3 4 4 5 6 7 8
4 4 3 3 3 3 3 3 3 3 3 3 4 5 5 6 6 7 7 7 9 8 11 11 11 12 14 14 14 14 16 15 11 7 3 3 4 4 4 4 4 5 5
4 4 3 3 3 3 3 3 3 3 3 4 4 4 5 6 6 7 7 8 8 9 10 11 14 14 15 14 16 17 17 15 14 11 6 5 6 5 5 4 5 5 5
Wind_Direction
80 82 83 83 85 88 89 89 90 89 91 92 91 87 84 80 77 78 71 57 46 27 11 354 333 321 311 308 299 287 277 272 288 297 288 285 282 283 287 287 285 281 279
83 84 82 82 83 83 82 82 85 84 84 91 95 96 93 87 80 76 63 48 31 9 351 338 327 324 313 304 296 289 284 276 280 296 300 297 288 286 284 283 284 282 279
85 85 82 80 82 82 81 80 82 85 87 91 96 97 95 89 79 69 58 35 11 347 330 321 315 313 305 300 294 288 285 286 281 289 296 296 293 289 288 285 284 282 282
85 85 82 80 82 83 81 80 81 86 88 88 89 91 88 81 71 49 27 7 346 331 321 311 305 300 292 292 293 289 290 291 290 288 291 295 293 291 285 288 292 288 285
85 85 84 84 82 82 80 78 76 78 84 86 83 72 60 60 45 25 2 346 333 327 322 316 309 306 306 306 305 304 302 296 295 294 294 297 298 300 295 291 292 295 288
86 86 86 84 82 82 80 76 73 69 69 69 62 54 42 38 25 17 2 339 329 322 319 318 315 308 312 314 313 312 308 304 303 299 298 300 302 300 297 294 295 296 294
82 83 83 84 81 76 79 73 67 62 61 57 47 43 35 14 16 5 354 344 326 317 313 313 314 312 315 310 311 312 307 302 298 298 299 302 301 302 300 297 293 293 293
79 79 83 84 82 75 70 65 57 54 53 45 38 31 23 8 7 359 350 341 325 319 314 309 308 311 313 317 316 309 306 304 299 298 291 293 295 297 295 295 295 295 289
78 79 80 84 81 71 64 56 48 53 47 39 29 19 9 349 348 349 352 338 331 327 323 319 318 316 314 319 320 314 312 310 309 304 299 295 295 298 299 303 303 305 308
76 79 75 78 81 75 68 59 50 57 48 35 24 9 356 341 337 344 350 342 335 331 327 325 324 321 319 321 320 312 311 313 313 313 311 308 305 302 303 300 302 302 306
80 77 73 75 84 85 74 63 62 57 45 27 12 355 349 343 340 343 348 348 334 326 323 324 321 320 320 320 319 310 305 309 309 310 313 313 313 314 315 313 302 297 299
84 79 72 67 79 92 87 70 57 52 40 20 3 355 349 344 342 341 341 342 338 324 318 317 316 318 320 322 324 319 319 322 323 325 326 328 332 332 327 321 312 302 289
95 87 80 75 70 83 93 82 54 41 33 7 359 354 346 343 341 341 339 337 339 335 319 319 322 324 329 330 328 329 332 338 338 343 343 341 337 332 332 330 328 324 311
116 105 92 83 67 55 61 78 64 351 350 349 349 346 341 339 344 346 341 336 335 336 329 324 325 330 338 336 336 340 344 344 343 344 344 342 341 346 350 348 342 344 345
110 98 75 68 13 342 331 271 261 255 248 292 317 321 330 335 332 330 333 333 332 327 324 333 348 347 350 348 345 344 346 350 351 350 352 356 356 359 359 354 354 354 360
124 124 302 299 310 315 323 324 303 290 305 303 300 308 311 310 321 331 337 338 339 340 348 352 349 347 347 345 344 345 348 352 350 353 359 1 4 7 6 4 6 12 14
203 238 254 264 273 289 308 325 330 341 356 360 349 344 339 334 338 341 342 339 345 355 3 353 348 345 344 343 344 346 347 347 348 358 3 3 6 11 12 14 15 19 22
235 242 237 248 250 259 274 296 313 331 341 341 339 334 339 341 342 346 347 351 357 1 357 350 347 343 342 343 346 347 346 347 351 359 4 6 12 18 22 25 25 25 27
248 244 236 237 244 247 258 313 353 356 348 337 339 340 341 339 339 348 356 3 351 351 350 347 344 342 341 344 346 347 348 348 350 354 0 4 11 21 29 34 35 28 31
264 256 216 206 231 250 220 217 40 37 9 352 349 346 343 346 354 351 355 352 351 349 347 344 342 341 342 343 345 347 348 351 353 356 357 1 8 21 32 39 42 41 39
272 285 184 162 165 153 98 103 110 95 15 354 345 344 356 354 352 350 352 352 350 346 344 341 340 342 343 343 345 345 346 348 351 353 357 4 16 31 38 44 48 53 53
217 119 103 110 104 94 94 92 106 96 16 357 349 351 357 4 359 355 353 351 347 343 341 338 338 340 340 337 337 338 340 344 347 349 353 3 22 41 50 55 57 58 60
89 92 84 76 79 86 82 76 76 65 35 9 359 2 3 3 1 358 354 351 349 350 352 351 347 345 343 336 332 329 328 328 326 324 332 355 27 46 56 63 65 68 66
80 84 84 79 77 80 81 75 66 60 47 31 19 12 5 1 359 358 356 351 351 354 358 357 353 345 344 343 338 335 331 326 322 314 318 0 40 57 67 70 71 76 76
73 76 77 75 80 85 86 80 69 60 51 36 23 13 6 3 360 358 356 354 353 355 358 359 355 349 345 344 344 342 343 350 359 3 14 44 56 62 71 77 81 86 83
71 73 73 74 77 83 88 85 74 66 53 38 26 17 10 5 359 357 356 356 354 353 355 356 354 353 351 349 347 350 357 7 16 27 44 58 58 58 67 74 82 84 86
Height
1504 1505 1507 1508 1509 1510 1512 1513 1515 1516 1518 1519 1520 1520 1521 1520 1520 1520 1519 1518 1517 1515 1513 1511 1509 1506 1504 1502 1500 1497 1495 1491 1485 1480 1479 1476 1473 1471 1467 1465 1461 1457 1454
1506 1507 1509 1510 1511 1512 1513 1514 1516 1517 1518 1519 1519 1519 1519 1519 1518 1517 1516 1514 1512 1510 1508 1505 1503 1501 1498 1496 1494 1491 1489 1485 1481 1474 1471 1469 1466 1463 1459 1456 1452 1449 1446
1508 1509 1510 1511 1513 1514 1515 1516 1517 1518 1518 1519 1518 1518 1518 1517 1516 1514 1513 1510 1508 1506 1504 1501 1498 1496 1493 1491 1488 1486 1483 1480 1476 1471 1465 1462 1459 1456 1451 1448 1445 1441 1438
1510 1510 1512 1513 1514 1515 1516 1517 1517 1518 1518 1518 1517 1517 1516 1514 1513 1511 1509 1507 1506 1503 1501 1498 1494 1491 1489 1486 1483 1481 1477 1474 1470 1465 1460 1456 1453 1449 1445 1441 1437 1434 1431
1512 1512 1513 1514 1515 1516 1517 1517 1517 1517 1517 1517 1516 1515 1513 1512 1510 1508 1507 1505 1503 1500 1497 1494 1491 1488 1485 1482 1480 1476 1472 1469 1465 1460 1456 1451 1447 1443 1440 1436 1431 1427 1424
1514 1514 1515 1516 1516 1517 1517 1517 1517 1517 1516 1515 1514 1513 1512 1510 1508 1507 1505 1502 1499 1496 1493 1490 1487 1484 1481 1479 1476 1472 1469 1465 1460 1456 1451 1447 1442 1439 1434 1430 1426 1422 1417
1516 1516 1516 1517 1518 1518 1518 1517 1517 1516 1515 1514 1513 1512 1510 1509 1507 1505 1502 1499 1496 1493 1489 1486 1483 1481 1478 1475 1471 1468 1465 1461 1457 1452 1447 1443 1438 1434 1429 1425 1421 1418 1413
1518 1518 1519 1519 1519 1519 1518 1518 1517 1516 1515 1514 1512 1511 1509 1507 1505 1502 1499 1496 1493 1490 1487 1484 1481 1478 1475 1472 1467 1464 1460 1456 1452 1448 1443 1438 1434 1429 1425 1421 1417 1413 1409
1521 1521 1521 1521 1521 1520 1519 1518 1517 1516 1515 1513 1512 1510 1508 1506 1503 1500 1496 1493 1490 1488 1485 1482 1479 1476 1473 1469 1465 1461 1456 1452 1449 1444 1440 1435 1430 1426 1421 1417 1413 1410 1405
1523 1523 1523 1523 1522 1521 1520 1519 1518 1516 1515 1513 1511 1509 1506 1504 1501 1498 1494 1491 1487 1485 1483 1480 1478 1474 1471 1467 1463 1458 1453 1449 1445 1440 1436 1431 1426 1422 1418 1414 1410 1407 1403
1526 1526 1525 1524 1523 1523 1521 1520 1519 1517 1515 1513 1511 1508 1505 1502 1499 1496 1493 1489 1486 1484 1481 1478 1476 1472 1469 1465 1461 1457 1452 1447 1442 1437 1432 1428 1423 1419 1415 1412 1408 1405 1402
1528 1527 1526 1526 1525 1524 1522 1521 1519 1517 1515 1513 1510 1508 1505 1501 1498 1495 1492 1489 1486 1483 1480 1477 1474 1471 1467 1464 1460 1456 1451 1446 1441 1436 1430 1426 1421 1417 1414 1410 1407 1404 1401
1529 1529 1528 1527 1526 1524 1523 1522 1520 1518 1516 1513 1510 1507 1504 1501 1497 1494 1491 1489 1486 1483 1480 1477 1474 1470 1467 1463 1460 1455 1450 1446 1441 1435 1430 1425 1421 1417 1414 1411 1407 1404 1400
1530 1530 1529 1528 1526 1525 1524 1522 1520 1518 1516 1513 1510 1507 1504 1500 1497 1493 1490 1488 1485 1482 1480 1477 1474 1471 1467 1464 1459 1455 1451 1446 1441 1436 1431 1426 1422 1418 1415 1411 1408 1405 1401
1531 1530 1530 1528 1527 1526 1524 1522 1521 1519 1516 1514 1510 1507 1503 1500 1497 1494 1491 1488 1485 1482 1479 1477 1474 1471 1467 1464 1460 1456 1452 1447 1443 1438 1433 1428 1424 1420 1417 1413 1410 1406 1403
1532 1531 1530 1529 1527 1526 1524 1523 1521 1519 1516 1514 1511 1507 1504 1501 1497 1494 1491 1488 1485 1483 1480 1477 1474 1471 1468 1465 1461 1457 1453 1449 1445 1440 1435 1431 1427 1423 1420 1416 1413 1410 1406
1533 1532 1530 1529 1528 1526 1524 1523 1521 1519 1517 1514 1511 1507 1504 1500 1497 1494 1491 1489 1486 1484 1481 1478 1476 1473 1470 1467 1463 1459 1456 1452 1448 1443 1439 1434 1430 1427 1423 1420 1417 1414 1410
1533 1532 1530 1529 1527 1526 1524 1523 1521 1519 1517 1514 1511 1507 1504 1501 1498 1495 1492 1490 1487 1485 1482 1480 1478 1475 1472 1469 1466 1462 1459 1455 1451 1447 1442 1438 1434 1430 1427 1424 1421 1418 1415
1532 1531 1530 1528 1527 1526 1524 1523 1521 1519 1517 1514 1511 1508 1505 1502 1499 1496 1493 1491 1488 1486 1484 1482 1480 1477 1474 1472 1469 1465 1462 1458 1454 1450 1446 1442 1438 1434 1431 1427 1425 1422 1420
1531 1530 1529 1527 1526 1525 1524 1523 1521 1519 1517 1515 1512 1509 1506 1503 1500 1498 1495 1493 1490 1488 1486 1484 1482 1479 1477 1475 1472 1469 1465 1462 1458 1454 1450 1447 1443 1439 1435 1432 1429 1427 1425
1530 1529 1528 1527 1526 1525 1524 1523 1521 1520 1518 1515 1513 1510 1507 1505 1502 1499 1497 1494 1492 1490 1488 1486 1484 1482 1480 1478 1475 1472 1469 1466 1462 1459 1455 1452 1448 1445 1441 1438 1435 1432 1430
1529 1528 1527 1527 1526 1526 1525 1523 1522 1520 1518 1516 1514 1512 1509 1507 1504 1501 1499 1496 1494 1492 1489 1487 1486 1484 1483 1481 1478 1476 1473 1469 1467 1464 1461 1458 1455 1452 1449 1445 1442 1439 1437
1530 1529 1528 1527 1527 1526 1525 1524 1523 1521 1519 1517 1515 1513 1511 1509 1506 1504 1501 1498 1496 1493 1492 1490 1488 1487 1486 1484 1482 1479 1476 1474 1471 1469 1466 1464 1462 1459 1456 1453 1450 1448 1445
1531 1530 1529 1528 1527 1526 1526 1525 1523 1522 1520 1519 1517 1515 1513 1511 1508 1506 1504 1501 1499 1496 1494 1493 1491 1490 1489 1487 1485 1483 1481 1478 1476 1473 1471 1469 1467 1465 1463 1460 1458 1456 1453
1532 1531 1530 1529 1528 1527 1526 1525 1524 1523 1521 1520 1518 1516 1514 1513 1511 1509 1506 1504 1502 1500 1498 1496 1495 1493 1492 1490 1488 1487 1485 1483 1480 1478 1476 1475 1473 1471 1469 1467 1465 1463 1461
1534 1532 1531 1530 1529 1528 1527 1526 1525 1524 1522 1521 1519 1518 1516 1514 1513 1511 1509 1507 1505 1503 1501 1499 1498 1496 1495 1494 1492 1490 1489 1487 1485 1483 1481 1480 1478 1476 1474 1472 1470 1469 1467